"Pseudo-MPEC" for C468MQ1

Created 2026 May 7 14:35:05 UT using Find_Orb

Click here for an explanation of pseudo-MPECs

 
 Astrometry: 
     C468MQ1*1C2026 05 06.36528113 21 25.758+58 35 12.37   ~569Z 18.49GVNEOCP703
     C468MQ1 1C2026 05 06.37006613 21 58.421+58 33 38.48   ~569Z 18.88GVNEOCP703
     C468MQ1 1C2026 05 06.37245413 22 14.725+58 32 49.06   ~569Z       VNEOCP703
     C468MQ1 1C2026 05 06.42102613 27 59.512+58 15 20.81   ~56AZ 18.88GVNEOCP703
     C468MQ1 1C2026 05 06.42120713 28 00.664+58 15 16.49   ~56AZ 18.81GVNEOCP703
     C468MQ1 1C2026 05 06.42138813 28 02.071+58 15 13.43   ~56AZ 18.38GVNEOCP703
     C468MQ1 1C2026 05 06.42156913 28 03.374+58 15 07.88   ~56AZ 18.40GVNEOCP703

Station data:
(703) Catalina Sky Survey  (N32.417029 W110.732640)  US/Arizona.  Observer E.
   J. Christensen. Measurers T. Beuden, V. F. Carvajal, D. Fay, J. B.
   Fazekas, D. C. Fuls, A. R. Gibbs, A. D. Grauer, H. Gröller, J. K. Hogan,
   R. A. Kowalski, S. M. Larson, G. J. Leonard, D. Rankin, R. L. Seaman, F.
   C. Shelly, K. W. Wierzchoś. 0.68 m Schmidt + 10K CCD.

Orbital elements:  C468MQ1
   Perihelion 2026 May 3.881310 +/- 9.31 TT = 21:09:05.2 (JD 2461164.381310)
Epoch 2026 May  6.0 TT = JDT 2461166.5   Earth MOID: 0.0036   Ju: 0.6607
M   0.134170083 +/- 8               Sa: 0.3737                   AutoNEOCP
n   0.063326912 +/- 0.474           Peri.  174.137610 +/- 12
a   6.233670464 +/- 0.872           Node    47.714597 +/- 3.6
e   0.83788638 +/- 0.391            Incl.   12.372640 +/- 7
P  15.56380                H 26.00  G  0.15   U 12.2
q 1.010562857 +/- 0.00453    Q 11.45677807 +/- 1.74       (J2000 ecliptic)
From 7 observations 2026 May 6 (81.1 min); mean residual 1".02
Residuals in arcseconds: 
260506 703  2.2+  .17-    260506 703  1.7+  .50-    260506 703  .81+  .85-    
260506 703  1.4+  .57+    260506 703  .32+  .63-    
260506 703  .47+  1.1-    260506 703  .98+  .50+    

Ephemerides (geocentric):
Date (UTC) HH   RA             Dec           delta  r     elong  mag " sig PA
---- --------  ------------   ------------  ------ ------ -----  --- --------
2026 05 07 15  17 10 15.491   +21 27 54.24  752577 1.0123 129.7 16.4 394' 155
2026 05 07 16  17 18 15.781   +18 27 32.56  746228 1.0123 130.5 16.4 428' 156
2026 05 07 17  17 26 05.489   +15 23 33.47  742770 1.0123 131.1 16.3 460' 156
2026 05 07 18  17 33 43.914   +12 17 34.79  742242 1.0124 131.6 16.3 488' 156
2026 05 07 19  17 41 10.488   +09 11 17.97  744653 1.0124 131.9 16.3 512' 156
2026 05 07 20  17 48 24.771   +06 06 23.28  749971 1.0124 132.0 16.3 532' 156
2026 05 07 21  17 55 26.442   +03 04 25.19  758138 1.0125 131.9 16.4 547' 156
2026 05 07 22  18 02 15.295   +00 06 48.42  769061 1.0125 131.6 16.4 558' 156
2026 05 07 23  18 08 51.225   -02 45 14.98  782625 1.0126 131.1 16.4 565' 156
2026 05 08 00  18 15 14.218   -05 30 47.25  798695 1.0126 130.5 16.5 567' 156
2026 05 08 01  18 21 24.340   -08 09 05.41  817123 1.0127 129.9 16.6 566' 156
2026 05 08 02  18 27 21.727   -10 39 40.68  837753 1.0127 129.1 16.6 562' 155
2026 05 08 03  18 33 06.571   -13 02 17.12  860426 1.0127 128.3 16.7 556' 155
2026 05 08 04  18 38 39.117   -15 16 49.89  884986 1.0128 127.4 16.8 548' 155
2026 05 08 05  18 43 59.646   -17 23 23.23  911279 1.0128 126.5 16.9 538' 155
2026 05 08 06  18 49 08.473   -19 22 08.48  939160 1.0129 125.6 17.0 528' 154
2026 05 08 07  18 54 05.936   -21 13 22.25  968490 1.0129 124.7 17.1 517' 154
2026 05 08 08  18 58 52.390   -22 57 24.81  999143 1.0129 123.9 17.2 505' 153
2026 05 08 09  19 03 28.202   -24 34 38.78  .00689 1.0130 123.0 17.3 493' 153
2026 05 08 10  19 07 53.747   -26 05 28.00  .00711 1.0130 122.2 17.4 481' 153
2026 05 08 11  19 12 09.402   -27 30 16.75  .00734 1.0131 121.4 17.5 469' 152
2026 05 08 12  19 16 15.545   -28 49 29.09  .00757 1.0131 120.6 17.5 458' 152
2026 05 08 13  19 20 12.547   -30 03 28.43  .00781 1.0132 119.8 17.6 446' 151
2026 05 08 14  19 24 00.778   -31 12 37.23  .00805 1.0132 119.1 17.7 435' 151
2026 05 08 15  19 27 40.597   -32 17 16.77  .00830 1.0133 118.5 17.8 425' 150
2026 05 08 16  19 31 12.355   -33 17 47.10  .00855 1.0133 117.8 17.9 415' 150
2026 05 08 17  19 34 36.393   -34 14 26.93  .00881 1.0134 117.2 18.0 405' 150
2026 05 08 18  19 37 53.041   -35 07 33.65  .00907 1.0134 116.6 18.1 395' 149
2026 05 08 19  19 41 02.618   -35 57 23.38  .00933 1.0135 116.0 18.1 386' 149
2026 05 08 20  19 44 05.430   -36 44 11.01  .00960 1.0135 115.5 18.2 378' 149
2026 05 08 21  19 47 01.771   -37 28 10.23  .00987 1.0136 115.0 18.3 369' 148
2026 05 08 22  19 49 51.925   -38 09 33.66  .01014 1.0136 114.5 18.4 361' 148
2026 05 08 23  19 52 36.162   -38 48 32.87  .01041 1.0137 114.1 18.4 354' 147
2026 05 09 00  19 55 14.740   -39 25 18.49  .01069 1.0137 113.6 18.5 347' 147
2026 05 09 01  19 57 47.908   -40 00 00.29  .01096 1.0138 113.2 18.6 340' 147
2026 05 09 02  20 00 15.901   -40 32 47.20  .01124 1.0138 112.8 18.6 333' 146
2026 05 09 03  20 02 38.945   -41 03 47.43  .01152 1.0139 112.4 18.7 327' 146
2026 05 09 04  20 04 57.253   -41 33 08.51  .01181 1.0139 112.1 18.8 321' 146
2026 05 09 05  20 07 11.031   -42 00 57.37  .01209 1.0140 111.7 18.8 315' 145
2026 05 09 06  20 09 20.473   -42 27 20.35  .01238 1.0140 111.4 18.9 310' 145
2026 05 09 07  20 11 25.765   -42 52 23.28  .01266 1.0141 111.1 18.9 305' 145
2026 05 09 08  20 13 27.082   -43 16 11.54  .01295 1.0141 110.8 19.0 300' 145
2026 05 09 09  20 15 24.593   -43 38 50.06  .01324 1.0142 110.5 19.1 295' 144
2026 05 09 10  20 17 18.458   -44 00 23.39  .01353 1.0142 110.2 19.1 290' 144
2026 05 09 11  20 19 08.828   -44 20 55.72  .01382 1.0143 109.9 19.2 286' 144
2026 05 09 12  20 20 55.848   -44 40 30.92  .01411 1.0143 109.7 19.2 281' 144
2026 05 09 13  20 22 39.656   -44 59 12.57  .01440 1.0144 109.5 19.3 277' 143
2026 05 09 14  20 24 20.382   -45 17 03.95  .01470 1.0144 109.2 19.3 273' 143